Погода в Дьенбьенфу

Вьетнам     21°23′37″N   103°01′02″E
темп.,
°C
ветер,
м/с
пор.,
м/с
влажн.,
%
обл.,
%
осадки,
мм/ч
давл.,
гПа
погр.,
м
12 апреля, пн
пн1201:00+18ююв119762 0.1 101411
04:00+18ююв1198100 0.0 101413
07:00+19ююв019588 0.0 101675
10:00+26юз1264100 0.0 1016765
13:00+30з1447100 0.1 10121870
16:00+28ссв2353100 0.0 1008554
19:00+22вюв1179100 0.0 101012
22:00+21в1184100 0.0 101311
13 апреля, вт
вт1301:00+20ююв0087100 0.0 101211
04:00+19ю0089100 0.3 101211
07:00+20ю119143 1.0 101353
10:00+28юз12565 0.0 1013764
13:00+33зюз144023 0.0 10102247
16:00+27з1359100 0.1 1007796
19:00+21ю248817 0.3 1010134
22:00+19вюв1193100 0.1 101342
14 апреля, ср
ср1401:00+18ююв1197100 2.4 101237
04:00+18юв0096100 0.3 101113
07:00+19ююз0093100 0.4 101365
10:00+27юз12627 0.3 1013645
13:00+31зюз13435 0.3 10091744
16:00+30юз4442100 0.3 10061896
19:00+20ю11875 1.2 100813
22:00+21юв1181100 0.1 101118
15 апреля, чт
чт1501:00+20вюв1189100 0.2 101014
04:00+19юв1193100 0.0 101013
07:00+20ю0090100 0.0 1012102
10:00+27ююз1257100 0.0 1012875
13:00+31юз2345100 0.0 10081824
16:00+29ссв2248100 0.3 1006883
19:00+21всв2290100 1.1 100955
22:00+21в1191100 0.4 101132
16 апреля, пт
пт1601:00+20св119585 0.7 101014
04:00+19в1197100 0.1 101014
07:00+20в1196100 2.8 1012108
10:00+25вюв1277100 2.3 1013405
13:00+27в116697 5.2 1010902
16:00+27св2362100 0.4 1006943
19:00+17в1297100 29.2 1012178
22:00+17юв1398100 0.1 1015128